HODOYOSHI-1 (40299 NORAD) Tracking and Keplerian Element Data

This shows tracking and keplerian element data for the satellite.

Feedback or suggestion? Click here.




ElementValue
Catalog40299
NameHODOYOSHI-1
Epoch Orbit57133
Epoch Day35.15018269
Epoch Year2025
RAAN102.6687
Inclination97.0936
Eccentricity0.0003614
Argument of Perigee248.1904
Mean Anonmoly111.8984
Mean Motion15.87359344
Decay Rate0.00212549
L11 40299U 14070B 25035.15018269 .00212549 00000+0 79585-3 0 9992
L22 40299 97.0936 102.6687 0003614 248.1904 111.8984 15.87359344571332



Live tracking and technical data element details for HODOYOSHI-1 (NORAD 40299). HODOYOSHI-1 can be tracked NOW for your location showing map with azimuth and elevation plus other details from your city location.







IsCatalogInMostPopularTable: catalog: 40299, numindb: 443
Update: records affected: 1



GetName: 40299 HODOYOSHI-1

Hit Count: updated at: Thu, 22 May 2025 04:05:31 GMT